Wind_Speed
13 13 13 13 13 14 14 14 14 14 14 14 15 15 15 15 15 15 16 17 17 17 18 18 18 19 18 17 16 17 18 15 12 11 11 16 19 19 18 19 18 15 14 13 10 10 13 14 15 15 15 17 19 21 23 25 26 20 12 13 15 15 18 15 16 18 14 17 14 12 17 14 12 14 14 10 11 18 14 9 8 4 3 1 6 12 11 11
13 13 13 13 13 13 14 14 14 15 15 16 16 16 16 17 16 16 17 17 18 18 18 19 19 19 19 18 15 17 17 15 16 15 16 22 21 19 18 17 16 14 12 10 9 11 13 14 15 16 18 19 20 22 22 25 27 19 11 13 17 16 18 19 20 21 18 19 16 16 18 16 15 18 17 13 13 18 16 12 11 10 7 5 7 12 12 10
13 13 13 13 13 14 14 14 15 16 17 17 16 16 16 17 17 17 17 17 17 17 18 19 19 20 20 18 17 16 16 17 18 11 16 20 16 13 14 13 12 10 8 9 11 12 13 14 14 17 21 20 22 23 23 25 25 23 18 13 17 19 20 25 26 25 25 22 20 19 16 17 17 21 20 14 13 16 15 13 13 14 11 10 10 13 14 12
13 13 13 13 14 14 14 15 16 17 17 16 16 17 16 16 16 17 17 16 16 17 18 19 20 21 21 20 17 14 17 20 11 7 13 12 8 7 8 8 9 7 6 9 12 13 13 15 15 17 20 19 23 25 23 25 23 21 21 16 19 21 20 28 30 28 28 25 24 23 19 17 16 17 20 17 13 12 14 15 16 18 16 16 16 16 16 16
13 13 14 14 15 15 15 15 16 16 16 16 17 17 17 17 16 17 16 15 15 16 16 18 19 21 22 22 16 14 15 12 0 7 11 7 5 5 6 7 7 6 6 10 12 12 14 15 16 17 19 17 21 22 22 31 28 18 22 26 27 25 21 26 32 30 28 26 26 25 23 20 14 15 21 22 16 11 16 17 15 18 16 20 19 19 18 17
14 14 14 15 15 15 15 16 16 16 17 17 18 18 18 17 17 17 16 15 15 16 16 16 18 19 21 20 17 12 9 7 2 7 12 11 11 10 9 9 9 8 8 10 11 12 14 17 18 19 18 16 18 20 22 32 30 17 19 30 33 33 26 25 30 31 30 27 27 26 23 24 18 16 20 24 22 17 21 18 8 8 9 17 16 18 19 18
15 15 15 15 16 16 16 16 16 17 17 18 18 19 19 19 19 18 16 15 15 15 16 16 17 17 19 18 16 9 13 12 6 10 14 15 14 12 14 13 11 11 9 10 10 12 15 17 20 22 18 15 18 22 25 29 30 22 19 25 32 36 33 32 31 28 29 30 32 30 23 24 23 16 17 22 24 21 22 19 7 6 4 10 14 17 18 18
15 16 17 17 17 17 18 18 17 18 18 18 19 19 19 20 20 19 16 15 15 16 16 17 16 16 17 16 14 11 14 10 4 10 16 13 9 11 14 12 9 10 10 10 10 11 15 18 22 22 16 16 19 21 25 25 25 25 23 24 28 33 35 36 37 32 30 29 30 31 24 25 26 21 18 20 22 21 23 20 11 11 8 8 13 15 16 16
16 17 17 18 18 18 18 18 18 18 18 18 18 19 19 20 20 18 16 16 16 16 16 16 17 15 14 12 11 11 8 6 6 9 11 9 11 13 12 10 9 9 10 11 11 12 15 18 21 22 17 18 21 21 25 21 18 22 26 28 26 28 33 34 35 37 35 28 24 25 25 27 28 24 19 22 23 19 23 20 11 11 10 10 11 13 15 17
16 17 18 18 18 18 19 18 17 17 18 18 18 19 20 20 19 18 16 17 16 16 17 16 16 14 11 9 11 8 6 7 7 7 8 11 15 13 10 9 9 10 11 11 11 12 15 17 17 20 20 20 20 20 24 21 18 24 27 30 30 28 31 32 28 35 39 33 28 24 24 29 31 23 16 23 25 19 21 18 12 10 11 12 13 14 16 16
18 18 19 19 19 19 19 19 18 18 18 18 19 19 20 19 18 18 17 17 16 15 16 16 15 13 9 10 11 9 8 8 7 9 12 15 15 12 11 10 10 11 12 12 12 12 15 16 15 16 16 17 19 19 22 24 23 26 26 25 30 28 28 31 26 29 33 28 33 28 21 29 30 22 20 24 24 22 22 14 13 13 14 15 13 15 15 16
19 20 21 21 21 21 20 20 19 19 18 19 20 20 20 19 18 18 18 17 16 15 16 16 14 10 9 13 18 16 14 14 13 15 15 14 13 12 12 11 11 12 12 13 13 11 12 15 17 16 14 13 15 14 15 23 24 25 26 18 19 22 22 30 27 24 24 22 32 28 18 24 26 25 29 28 22 22 21 16 17 16 18 17 14 15 15 16
20 21 21 22 22 22 21 20 20 19 18 20 21 21 21 19 18 18 17 17 16 16 16 16 13 9 11 16 18 17 16 17 17 17 15 12 11 11 11 11 11 12 13 14 13 11 10 12 16 19 19 14 13 12 8 16 22 20 21 14 13 15 17 28 27 24 25 23 29 24 15 20 24 28 32 29 24 22 20 21 23 19 20 19 14 16 15 16
21 22 22 23 22 21 20 19 20 19 19 21 22 21 20 18 17 17 16 16 16 16 16 14 12 7 13 20 18 16 17 17 17 17 13 9 9 9 9 9 10 11 12 14 14 12 10 10 14 17 21 19 14 15 11 12 17 15 16 14 12 11 13 24 25 23 25 23 30 25 14 18 21 26 32 29 27 26 23 24 24 22 22 20 17 17 16 17
22 23 24 23 22 20 18 18 19 20 21 23 23 21 17 15 15 15 14 15 15 15 14 12 9 7 15 20 17 15 14 12 12 11 8 7 7 7 7 7 9 11 11 13 14 13 11 11 14 15 18 20 16 15 12 10 12 13 14 13 12 11 14 21 24 24 24 22 30 25 14 18 20 23 31 30 28 29 27 27 27 25 23 22 20 18 18 18
23 24 24 23 22 18 16 17 19 21 22 22 21 18 15 13 13 14 15 16 14 12 9 7 7 9 13 12 8 10 10 7 6 6 6 6 6 7 8 9 10 12 13 13 13 13 12 13 15 16 16 16 14 12 9 9 11 12 13 13 14 16 14 15 21 27 28 22 26 26 18 16 17 22 30 29 30 31 27 28 29 27 25 23 21 20 19 18
23 24 24 23 21 17 16 17 19 22 22 21 19 15 12 11 12 14 15 12 9 8 5 7 8 10 13 10 7 9 9 8 6 5 7 7 7 10 10 11 11 12 13 13 14 14 14 15 14 13 14 13 12 12 11 11 11 11 13 13 17 20 17 15 18 25 30 25 24 28 23 18 17 20 27 30 32 31 28 27 28 27 26 24 22 21 20 20
24 24 24 23 21 17 16 18 20 21 20 20 17 12 11 10 13 14 13 10 4 5 7 9 8 8 10 10 9 8 6 6 7 7 10 11 12 13 11 11 10 9 12 13 15 17 16 16 13 10 11 12 12 13 13 14 15 15 15 14 16 20 20 19 17 19 27 28 26 27 24 24 22 19 25 30 31 30 28 27 27 28 27 24 23 22 21 21
24 25 24 23 21 18 17 18 20 20 20 19 15 13 12 9 11 9 6 5 6 8 7 7 11 9 10 10 11 10 8 8 10 12 13 14 13 12 11 11 11 11 13 10 14 19 15 12 13 11 10 13 15 17 18 19 21 22 20 17 16 17 17 20 20 18 24 25 26 26 24 24 24 22 21 19 23 26 26 27 26 27 27 25 25 25 23 22
25 26 25 24 22 19 18 18 19 19 19 18 15 15 13 10 10 4 3 8 14 15 17 15 15 19 21 18 16 13 12 12 14 16 15 14 12 12 13 13 13 14 13 11 12 18 17 11 11 12 14 17 21 22 23 23 24 23 20 18 18 16 16 19 21 20 23 20 22 26 25 22 23 24 21 18 23 23 24 26 26 26 26 25 26 26 24 23
25 26 25 25 23 20 19 18 17 17 16 14 12 13 13 11 10 8 11 17 20 19 23 23 21 24 24 20 18 15 15 15 16 17 15 13 13 13 13 14 14 11 12 15 13 15 16 13 13 17 18 20 22 23 24 23 25 24 18 17 17 15 17 20 20 21 22 17 18 25 24 21 22 22 23 23 23 22 24 24 25 26 25 25 26 26 25 23
26 26 26 25 24 22 19 17 16 15 12 9 9 10 11 11 8 9 14 18 22 22 22 22 21 22 20 19 18 14 13 14 15 16 14 14 14 12 12 13 13 11 12 15 12 11 13 13 17 19 20 21 21 21 23 24 24 20 17 18 16 14 17 18 20 23 21 14 15 23 22 19 22 22 23 23 20 22 29 28 27 27 26 25 26 27 26 23
26 27 27 26 24 23 18 15 14 12 10 7 9 10 9 9 8 8 11 14 20 21 18 18 17 17 15 14 11 10 13 13 12 10 11 14 15 15 13 12 13 13 13 13 12 11 11 13 19 21 20 21 21 21 23 22 19 17 17 16 13 16 17 14 17 22 18 13 14 20 18 15 18 20 21 23 24 25 30 31 30 29 27 26 26 26 27 25
25 27 27 26 24 21 16 13 11 9 8 8 9 8 7 8 7 9 12 13 15 14 11 10 11 12 11 8 7 11 13 11 10 8 9 13 15 15 14 14 13 13 13 15 16 15 13 15 20 23 22 21 20 21 21 17 14 17 21 17 14 20 21 17 17 17 14 14 17 18 14 12 17 19 19 20 25 26 28 30 30 29 28 27 26 25 26 27
25 26 27 26 22 18 13 10 8 7 8 7 7 7 7 7 7 8 11 11 10 8 8 7 7 9 8 7 8 10 11 11 13 11 9 13 14 12 13 14 13 12 15 18 17 14 15 19 21 21 21 22 20 20 21 18 13 16 22 22 20 21 23 21 20 18 12 12 18 18 13 10 16 21 20 18 20 22 25 26 27 28 28 27 26 25 25 27
25 26 27 24 19 16 11 6 5 7 8 6 6 7 7 7 7 7 7 7 5 4 8 8 7 6 7 9 10 9 9 10 12 13 12 13 15 14 12 11 11 13 16 15 13 9 11 19 21 19 21 24 21 19 22 21 14 12 20 25 23 22 21 22 22 19 13 11 16 20 14 8 13 19 20 19 20 22 23 23 25 28 28 27 26 26 26 27
24 25 25 20 16 15 9 5 7 7 7 7 7 7 6 7 8 7 4 5 4 2 5 5 5 4 6 8 10 9 6 3 6 12 14 12 13 15 13 10 11 12 13 11 9 8 12 19 20 20 21 20 19 18 20 24 17 12 20 25 22 22 20 22 23 18 12 11 15 20 17 11 10 14 19 21 21 23 23 22 23 26 29 28 27 27 26 28
23 25 23 17 13 13 9 7 7 5 6 8 7 6 5 6 7 5 4 5 2 2 3 5 4 4 7 8 11 13 10 6 6 9 12 11 12 14 13 13 14 14 13 11 10 11 15 19 20 22 20 15 16 18 21 24 18 15 21 24 21 21 18 18 19 16 14 13 12 17 19 13 9 12 18 23 22 23 25 25 22 24 29 30 29 28 27 27
23 24 20 14 12 13 10 7 5 5 6 7 6 5 5 6 5 3 5 4 0 2 2 3 4 6 8 10 12 15 14 11 8 5 9 11 12 13 13 13 16 17 14 14 14 13 14 18 20 20 17 13 17 22 23 22 17 17 20 20 21 22 18 16 15 15 16 13 12 17 19 13 10 12 15 19 22 22 22 22 21 24 30 32 30 29 29 28
22 22 17 12 11 10 9 7 5 6 6 6 6 6 7 6 4 4 5 3 2 1 2 3 3 5 7 9 10 13 13 13 12 10 10 11 13 16 16 15 14 13 13 15 16 17 17 19 19 17 16 15 18 22 22 21 20 20 19 18 19 19 17 14 12 13 14 12 15 21 22 17 12 11 13 15 18 20 18 18 20 24 29 32 31 30 30 29
22 20 14 10 8 6 5 5 5 6 5 6 6 6 8 6 3 5 5 2 4 2 2 4 5 5 7 9 9 11 11 11 14 14 11 10 12 14 13 13 11 9 10 11 14 18 19 17 14 16 19 18 17 18 19 22 24 20 17 16 15 13 14 13 11 12 11 11 17 22 24 21 14 11 14 15 18 21 20 20 22 23 27 30 32 31 30 29
21 18 12 9 7 4 3 6 6 5 4 4 5 6 7 5 3 5 4 3 3 1 1 4 5 5 9 12 12 13 13 11 12 13 12 9 9 11 11 10 9 8 10 10 12 14 15 15 14 17 21 20 15 13 16 20 21 18 16 15 13 11 12 13 13 11 11 12 17 22 23 19 13 12 15 17 20 21 19 20 23 24 27 31 33 32 31 30
20 17 11 8 6 3 4 6 5 3 2 2 5 6 5 4 3 6 7 4 3 2 2 4 6 8 10 11 12 13 12 10 10 11 12 11 10 11 14 14 13 11 9 9 11 9 10 14 17 17 17 19 18 12 12 15 17 17 16 14 13 11 11 14 13 11 12 13 17 22 20 14 12 13 18 17 18 21 21 22 26 29 31 33 33 33 32 31
19 14 8 6 6 4 5 5 3 2 2 2 4 5 5 5 6 9 10 7 6 7 6 4 4 8 11 11 11 11 10 9 9 9 8 10 10 9 12 16 18 14 8 7 8 9 12 12 15 16 14 17 20 14 13 15 16 17 17 15 13 11 11 13 12 12 14 13 17 21 16 13 11 10 17 19 14 20 24 25 28 31 33 33 32 32 32 31
16 13 8 6 6 7 6 4 3 1 2 4 5 5 5 6 7 7 7 6 7 8 8 7 4 8 11 12 12 12 10 7 8 9 7 9 10 9 11 13 16 14 8 6 6 10 15 12 14 18 15 17 19 16 16 17 15 15 16 15 13 12 11 10 11 12 12 11 13 13 10 12 9 2 10 18 14 16 21 24 26 29 31 32 31 31 31 30
12 9 7 4 5 8 5 4 2 1 3 6 6 5 5 6 6 6 6 6 7 8 9 10 8 8 8 8 8 8 9 7 6 6 7 9 10 12 13 10 12 14 11 7 6 8 13 10 14 19 17 18 19 16 18 17 13 12 15 14 13 15 12 10 10 9 8 11 10 9 9 12 10 4 7 16 16 16 17 20 23 26 30 32 30 30 31 29
8 4 5 4 5 6 4 3 2 1 4 6 5 6 7 7 9 10 10 11 11 7 6 7 4 3 5 5 3 3 7 8 6 4 5 6 8 13 14 8 10 15 13 10 8 8 9 8 13 19 18 19 22 19 18 19 16 12 14 15 15 16 12 9 9 7 9 11 9 12 15 13 11 9 9 15 17 18 18 18 20 23 27 29 29 29 30 29
7 4 5 6 5 4 2 3 2 2 5 5 7 9 7 9 14 15 13 13 12 5 5 6 2 2 4 5 3 2 6 5 3 4 5 6 6 9 11 9 11 14 14 13 9 8 9 7 11 19 19 18 20 19 14 18 22 16 14 16 14 12 11 9 8 8 11 11 9 14 17 13 11 9 11 15 16 17 19 19 19 21 22 25 28 30 30 30
6 6 4 4 3 4 2 2 2 4 5 5 6 8 7 11 17 20 16 12 9 5 5 6 4 3 5 6 6 5 5 4 3 3 4 6 4 5 8 8 9 11 12 13 10 9 9 5 8 17 20 17 15 14 11 13 18 17 15 15 12 9 9 9 8 8 10 10 10 13 13 11 11 10 13 16 16 17 19 19 19 20 21 24 27 29 30 31
7 8 3 2 3 4 2 1 4 5 5 5 7 9 10 13 17 21 19 9 3 5 4 5 5 3 4 7 8 6 5 5 5 3 2 4 3 4 8 7 6 9 13 14 13 9 5 3 5 14 19 15 11 11 12 12 13 14 13 14 12 9 8 9 9 8 10 10 10 10 9 9 9 9 13 16 17 18 19 18 17 18 22 26 26 27 28 29
7 7 1 0 3 3 2 2 5 6 5 6 8 8 12 15 15 21 21 8 2 6 7 5 5 4 5 6 7 6 6 6 5 2 1 4 5 3 5 7 6 9 13 13 11 7 3 3 6 11 13 12 11 12 15 16 16 14 12 13 13 11 10 10 9 9 10 10 9 9 9 8 7 9 13 14 14 16 18 17 15 17 23 25 24 25 28 28
8 6 1 6 7 3 3 5 6 6 5 7 11 11 14 17 15 18 20 10 0 4 7 5 4 5 6 7 8 8 6 5 3 1 1 5 5 2 3 9 10 10 10 8 8 7 4 4 7 10 10 11 13 16 16 18 19 16 13 14 14 12 11 9 9 9 10 11 11 10 8 5 4 9 12 12 12 14 17 17 15 18 24 25 23 24 26 27
9 6 3 10 12 5 5 7 6 4 4 11 16 17 17 15 13 16 19 12 4 1 3 3 3 4 5 6 8 8 6 4 3 1 2 5 4 0 4 11 11 10 7 5 7 7 2 3 8 9 8 11 14 16 16 17 18 14 12 13 14 14 13 10 8 8 8 10 11 9 8 5 4 3 8 11 13 13 16 19 17 18 23 25 26 26 25 26
10 7 4 8 9 5 5 7 8 6 9 14 17 18 17 13 13 16 17 14 7 1 2 4 2 3 5 6 8 9 8 4 2 0 2 5 4 3 7 13 10 8 5 3 3 4 2 4 7 9 8 10 12 13 13 14 13 10 11 14 16 18 18 12 8 6 7 10 9 7 7 6 6 4 6 8 14 14 14 18 19 19 22 25 27 27 25 25
11 7 4 5 4 4 6 6 7 8 11 15 16 16 16 13 15 17 16 14 9 2 3 4 3 3 5 8 9 10 8 2 1 2 3 4 4 4 8 12 10 10 7 4 8 3 0 5 3 6 8 9 9 9 10 10 10 9 13 17 17 18 18 13 8 7 8 10 10 6 5 7 9 9 8 8 12 13 12 14 15 15 20 24 26 25 24 24
10 5 7 7 5 7 10 9 7 8 11 13 13 14 15 15 15 17 14 12 10 2 5 4 3 2 4 6 7 9 6 4 2 2 4 4 3 5 9 11 12 12 5 2 8 6 2 4 4 2 3 7 10 12 13 12 11 12 17 19 17 17 18 15 9 8 8 9 10 7 4 8 11 12 12 11 10 9 9 10 11 10 11 14 19 21 23 24
8 4 6 9 7 7 8 7 8 10 12 12 10 11 17 17 15 15 12 9 12 9 2 6 2 2 3 4 5 7 5 4 2 3 5 5 3 7 10 12 13 11 3 2 8 7 3 3 3 3 6 5 5 11 18 17 14 14 17 19 19 19 19 17 13 11 9 7 9 9 7 8 11 12 11 10 8 7 6 6 9 12 12 13 14 17 19 21
7 6 6 8 6 6 7 11 13 13 14 13 10 11 17 18 16 15 12 10 12 12 5 2 4 5 7 6 5 5 4 4 3 4 4 4 4 8 10 10 11 11 7 7 8 5 4 4 4 4 6 4 3 3 13 17 16 16 16 17 19 20 19 18 16 14 11 8 9 11 10 8 9 12 11 9 7 7 7 7 5 8 14 17 16 16 19 21
8 7 6 8 8 11 13 14 15 15 13 10 8 11 15 17 17 15 12 12 13 12 10 7 6 4 5 9 6 4 4 3 4 6 5 4 5 7 8 8 9 11 10 8 7 5 5 4 3 5 5 4 4 5 8 13 15 17 18 17 18 19 18 17 16 14 14 11 8 9 11 10 8 10 11 8 6 7 8 8 6 7 11 16 17 19 21 24
9 7 8 11 12 14 15 15 14 12 10 9 8 11 14 16 18 16 15 14 14 12 13 12 15 14 5 7 7 6 5 2 1 5 5 5 6 5 6 5 6 8 9 7 5 4 3 3 4 4 3 5 8 8 8 10 12 14 17 18 18 19 17 17 16 14 13 13 11 11 11 12 9 7 10 6 2 4 5 5 6 7 10 17 21 23 24 25
9 6 8 11 11 11 13 13 13 10 7 8 10 12 14 17 19 19 17 13 12 13 15 16 19 14 2 7 6 6 8 7 6 4 5 7 6 4 4 3 3 6 8 7 4 2 3 4 5 4 4 4 7 7 8 9 9 12 15 17 18 18 16 15 15 14 14 14 14 14 11 9 7 6 8 4 2 3 4 5 5 5 8 14 20 23 26 26
11 8 8 9 9 11 12 11 10 9 7 9 13 14 15 18 21 20 14 9 11 16 17 18 18 11 1 3 4 7 9 10 10 7 6 8 9 7 6 5 5 5 6 5 4 3 4 5 3 3 3 3 5 5 6 8 9 10 12 15 16 17 16 15 16 16 17 15 12 11 10 7 5 6 7 6 3 1 1 2 2 2 5 10 16 19 23 24
Wind_Direction
359 355 353 349 349 349 348 348 346 345 343 343 341 339 338 337 337 333 332 331 330 330 326 326 324 324 327 333 342 334 329 334 330 318 290 258 250 252 257 262 267 269 269 276 280 264 254 246 235 228 223 222 221 224 225 223 224 223 224 232 235 234 236 232 232 240 240 240 229 197 206 206 220 221 214 220 230 244 248 224 215 209 218 41 121 147 187 218
354 351 350 348 348 347 346 344 343 343 342 340 337 335 334 334 334 330 329 327 328 328 326 325 322 323 324 331 344 334 329 330 317 300 266 260 265 268 267 264 267 267 264 280 282 259 249 241 231 221 218 221 219 218 221 219 219 220 222 231 233 234 237 235 236 242 244 245 236 212 201 196 222 239 227 215 223 234 237 229 223 214 183 116 142 158 176 205
349 347 346 346 346 345 344 342 343 342 340 338 335 334 331 330 330 328 327 325 326 325 326 324 322 323 321 334 345 336 335 323 309 283 246 262 280 275 265 263 269 267 264 286 279 257 249 245 235 222 218 223 221 215 217 217 215 220 225 232 232 231 236 237 238 240 243 245 245 234 200 183 215 237 236 228 228 231 229 226 227 221 193 153 165 174 170 180
346 346 344 343 343 342 341 339 340 339 337 336 334 332 327 326 323 322 323 323 323 320 322 320 322 323 323 337 344 346 339 314 296 214 230 268 298 276 258 262 276 278 283 292 279 258 250 246 242 232 223 224 222 217 218 215 213 218 224 233 234 231 234 235 238 241 241 243 245 244 227 206 205 222 234 237 238 236 230 225 224 226 205 175 176 179 173 173
343 342 339 339 338 337 335 333 333 333 335 334 332 329 325 323 319 319 321 322 320 315 315 314 318 321 325 336 347 354 332 308 191 193 241 277 325 302 267 271 284 293 306 298 278 256 245 237 236 234 228 227 220 218 220 217 216 221 226 234 235 234 236 233 235 239 240 242 243 240 240 235 211 209 228 233 239 242 235 233 236 237 198 163 173 180 174 174
343 340 336 334 331 331 330 327 327 329 332 330 329 328 324 323 319 320 322 322 318 313 313 312 314 319 324 335 346 347 302 296 26 236 256 283 296 289 269 272 286 301 312 298 273 249 238 229 227 226 226 229 223 220 221 217 218 225 230 232 234 234 238 237 233 235 236 239 243 235 231 241 235 216 223 229 235 239 243 248 261 260 180 151 175 182 174 176
343 340 337 335 332 332 331 328 326 328 328 326 326 325 323 322 320 322 322 321 315 312 315 313 314 317 324 335 343 322 262 280 302 243 262 284 289 284 271 270 284 293 295 288 267 242 233 225 223 223 224 229 227 226 224 220 220 227 233 231 232 234 236 240 238 237 234 232 241 238 222 232 242 229 222 229 233 232 243 249 234 251 212 163 186 183 177 178
342 340 338 337 335 333 331 329 327 327 325 323 322 322 320 319 320 323 322 320 315 312 313 313 315 319 328 339 338 307 267 267 249 247 272 286 302 300 287 280 283 278 273 276 264 246 235 227 224 223 226 229 228 229 226 224 223 226 233 233 233 235 233 235 238 240 238 234 238 239 225 225 238 241 235 232 233 227 236 241 218 227 233 188 190 182 177 179
341 339 338 336 334 331 328 328 326 323 322 320 320 319 315 316 321 323 321 320 315 310 309 310 314 319 333 336 313 299 275 233 227 264 281 297 305 297 292 286 274 264 265 266 258 251 239 231 227 225 232 235 232 232 228 225 224 223 230 235 235 236 235 231 234 238 238 237 234 231 231 230 234 243 245 236 234 227 231 233 206 202 207 196 193 185 181 181
341 338 336 333 329 326 322 321 321 319 317 315 315 314 311 314 322 323 318 317 313 308 307 307 310 317 330 318 290 280 258 241 255 282 290 296 297 292 288 277 263 259 258 258 252 246 240 237 233 231 238 243 239 235 229 228 230 228 230 236 237 237 238 232 228 233 234 234 229 222 229 235 234 238 239 233 232 234 236 225 199 194 204 202 193 189 186 183
342 338 335 331 326 323 319 317 315 314 314 313 310 309 310 315 321 319 314 313 312 309 305 303 308 311 310 288 267 257 258 262 279 296 292 292 292 288 279 265 258 255 250 252 250 245 244 244 241 239 238 237 242 242 237 236 235 235 235 236 236 235 238 234 229 231 231 228 227 224 228 235 236 233 231 229 223 228 236 222 202 211 225 218 195 190 185 183
343 340 336 331 327 325 323 319 313 311 312 313 310 308 312 316 316 314 311 310 311 309 302 301 305 303 296 275 254 252 267 276 284 288 286 286 285 280 272 262 255 249 245 248 246 245 248 243 242 243 238 233 237 243 244 240 237 236 236 237 235 232 233 234 231 228 227 223 222 224 230 234 234 228 229 231 220 216 217 215 218 219 231 228 198 192 188 185
343 339 334 330 328 325 324 322 318 312 311 313 313 311 311 313 312 311 309 309 309 304 299 297 300 293 278 268 257 261 275 278 280 281 280 280 278 274 269 260 250 244 242 244 243 246 250 243 241 240 244 248 238 235 248 241 236 234 233 235 234 229 227 227 223 217 222 225 217 216 229 231 230 228 229 229 219 210 199 210 224 217 225 230 204 198 196 188
342 338 336 333 330 327 325 327 326 320 317 316 316 314 311 310 310 307 304 304 303 298 295 293 295 282 260 266 275 279 276 274 272 271 271 266 265 271 262 246 243 242 239 240 242 245 249 246 243 241 244 251 252 249 249 237 233 229 227 229 229 229 224 218 211 210 218 218 210 213 232 233 227 226 228 223 214 214 207 211 221 213 216 222 209 204 201 192
341 339 338 337 334 330 329 330 329 324 321 318 318 318 314 311 308 305 303 300 297 295 296 292 282 260 264 275 285 283 279 279 265 252 242 238 253 270 257 242 244 245 240 239 236 238 242 240 237 238 237 240 251 254 244 231 225 219 220 221 217 225 227 212 203 208 215 210 207 213 231 235 229 224 225 217 208 215 213 209 218 217 214 214 210 206 203 195
342 341 339 339 337 331 330 329 327 324 320 318 321 322 319 316 315 311 305 298 293 297 294 272 255 252 272 287 283 268 270 262 234 212 215 227 246 270 274 268 262 252 243 236 231 230 231 230 231 233 234 231 232 238 237 229 219 212 216 219 214 217 226 214 202 206 213 212 207 214 228 232 228 228 227 214 204 212 210 209 219 219 213 211 210 206 201 194
344 342 340 340 336 330 328 326 326 323 320 323 325 328 330 329 334 325 315 315 312 310 283 254 267 262 257 265 277 273 254 228 216 217 231 234 250 276 283 269 262 253 237 228 224 222 221 222 225 227 229 225 218 220 225 220 210 205 210 220 220 217 220 219 207 200 205 213 210 214 224 230 227 225 226 219 207 205 203 208 220 220 212 208 212 210 201 195
343 342 340 339 336 330 324 322 324 321 322 327 324 339 356 343 337 324 317 336 329 268 256 240 246 256 244 245 273 284 249 227 237 243 249 254 260 270 270 256 259 253 233 223 216 215 214 214 218 220 217 217 216 215 219 217 212 208 205 214 221 219 219 218 217 198 195 208 215 215 220 226 230 224 226 224 205 195 199 211 220 219 212 204 212 217 205 198
342 342 340 339 337 332 325 322 322 320 325 330 325 346 358 326 315 302 274 294 249 242 268 219 201 242 276 279 281 276 257 253 257 257 259 258 256 255 250 247 254 248 236 224 208 207 209 209 214 221 213 210 214 214 219 222 220 219 214 217 221 221 223 220 222 209 192 203 216 218 220 221 224 227 229 213 186 190 204 212 217 215 210 202 207 216 209 201
341 340 339 337 336 332 328 323 321 323 329 334 333 343 346 321 309 283 228 270 259 265 281 263 240 259 277 282 282 276 267 267 263 261 259 247 239 242 244 243 243 240 234 233 213 201 207 215 213 215 216 212 213 217 223 226 229 231 226 225 225 225 229 220 220 215 196 200 214 217 223 220 216 223 222 186 172 195 209 210 213 211 211 207 204 208 206 200
341 339 337 336 336 332 328 325 326 327 333 344 346 344 347 343 332 319 313 295 279 275 274 270 265 266 271 275 276 276 276 274 263 258 253 235 227 235 237 228 231 232 222 232 233 207 207 224 221 216 220 219 216 218 223 228 232 237 234 230 224 221 228 220 217 216 199 196 214 216 221 221 215 220 220 199 185 199 206 209 214 211 214 212 204 204 202 197
340 338 337 337 336 331 330 332 330 329 345 5 351 337 342 337 321 311 311 295 286 282 269 265 264 261 266 268 266 264 265 264 260 253 236 219 215 221 225 215 222 234 220 223 234 220 213 226 228 222 221 223 223 219 222 228 230 235 237 231 225 220 224 220 216 214 202 193 213 215 215 220 218 216 219 211 196 201 207 210 214 214 217 212 203 202 197 190
339 337 337 338 336 334 338 340 336 345 9 8 330 324 329 324 312 308 304 290 290 288 268 255 252 252 254 256 247 230 237 246 254 247 207 200 211 218 231 229 224 232 230 221 220 223 223 223 227 229 225 222 225 222 220 225 226 231 234 226 229 228 218 214 214 210 199 194 213 215 211 220 220 213 218 211 197 200 207 211 216 217 218 213 205 201 193 184
338 337 337 338 336 337 346 350 357 11 1 334 325 317 307 318 324 320 309 287 282 282 263 244 242 244 242 240 216 208 228 238 245 243 185 193 215 216 230 244 238 233 235 232 227 230 235 229 223 227 229 222 223 223 219 221 219 226 230 220 224 229 217 210 206 199 194 199 213 218 211 215 216 210 215 208 196 199 204 209 215 216 217 213 205 202 193 185
337 337 337 338 337 341 357 13 21 7 334 323 332 320 308 323 328 325 316 290 272 250 215 211 223 227 218 213 204 213 240 242 238 238 197 202 220 220 226 237 243 242 235 235 235 235 237 235 228 227 229 223 222 223 217 218 216 220 224 219 224 229 219 212 202 192 198 203 206 216 218 208 209 209 210 205 196 200 204 207 212 211 212 210 202 201 195 186
337 337 337 339 337 341 3 25 350 331 336 336 328 323 326 330 322 322 316 285 273 191 172 188 200 197 202 208 206 222 252 246 235 232 218 218 226 232 238 227 229 243 243 240 238 239 239 237 233 229 228 223 222 224 216 216 218 218 214 214 227 232 217 212 207 200 206 209 200 209 224 216 203 207 207 204 198 199 205 208 209 206 204 205 200 197 193 188
337 337 337 339 338 337 346 335 315 330 343 336 328 322 322 324 317 318 305 266 258 171 155 172 187 204 225 213 198 216 253 269 235 221 212 216 221 228 241 236 230 236 242 246 239 231 234 236 231 225 226 225 221 220 214 213 217 221 209 206 224 235 220 212 214 211 208 214 205 202 217 232 213 202 201 203 202 199 204 207 205 202 200 200 198 195 191 190
336 337 337 339 338 333 322 304 309 329 331 328 327 311 311 326 318 304 284 279 266 147 160 164 180 230 244 232 217 232 264 290 257 208 195 211 217 218 230 238 246 247 241 245 244 230 227 233 229 219 221 226 222 218 213 212 217 224 211 202 215 230 231 224 219 217 211 214 216 200 206 227 224 204 197 200 203 202 203 204 201 199 198 198 198 194 190 190
336 337 336 337 342 338 330 320 302 286 303 321 319 307 319 327 315 276 255 274 267 164 193 165 186 224 231 235 233 242 262 270 259 193 183 212 217 221 238 243 250 257 250 245 248 243 234 236 231 219 215 222 224 219 212 210 216 224 215 206 211 218 231 238 221 213 212 214 223 204 197 212 223 211 198 194 202 205 202 201 201 198 196 196 196 194 190 190
335 336 333 336 351 350 338 335 316 292 296 304 304 309 311 303 288 266 254 259 278 238 137 142 207 240 235 237 241 247 254 256 258 240 217 223 221 227 245 251 252 258 250 241 244 248 248 246 238 221 215 224 228 218 207 209 215 216 215 211 207 208 221 237 226 217 213 212 225 215 198 203 220 217 206 198 199 202 199 198 199 197 195 193 192 193 191 188
335 335 330 330 346 349 319 311 315 306 292 286 297 309 296 275 245 269 279 317 292 274 150 208 243 260 258 262 261 257 257 254 252 246 235 235 230 227 233 239 242 245 244 239 237 241 244 247 239 217 214 224 231 218 207 212 213 209 214 212 201 201 209 219 226 226 218 209 221 221 206 203 214 216 210 202 196 199 201 199 197 195 193 190 189 192 190 186
334 333 326 321 328 331 305 302 310 305 283 271 296 307 293 275 236 252 285 353 309 314 97 269 296 316 288 282 275 267 269 262 246 242 240 236 235 230 224 220 216 223 233 229 227 229 230 235 231 214 213 221 227 216 207 211 207 202 212 209 197 197 197 203 214 217 219 217 215 216 210 206 214 222 218 205 191 195 204 202 198 194 190 189 189 190 188 185
335 333 322 320 330 318 288 297 303 300 292 284 291 290 277 270 276 285 301 326 324 321 315 302 315 310 293 280 272 269 265 257 245 239 235 235 241 236 229 225 221 230 237 227 228 225 216 225 224 212 207 215 223 217 204 202 197 200 209 201 195 197 188 193 202 203 214 223 216 212 210 210 216 218 222 217 189 186 202 206 199 194 191 189 188 188 187 186
335 334 320 325 340 316 295 301 302 291 285 289 292 282 259 265 297 312 308 302 308 310 308 324 317 288 274 258 260 268 260 255 247 229 217 229 241 238 232 225 220 229 242 238 241 224 209 209 211 211 200 200 213 221 213 199 191 200 206 199 201 202 190 188 192 197 205 212 213 209 206 212 218 205 214 224 200 184 200 205 198 194 192 191 188 187 188 185
343 347 342 352 342 317 311 305 293 291 257 261 277 273 266 289 308 315 307 297 308 313 312 320 299 268 267 258 258 258 245 248 245 226 220 231 232 230 232 221 210 216 225 235 249 219 211 204 194 204 205 196 202 216 219 206 194 198 201 200 205 201 193 192 199 208 209 207 208 206 204 211 219 167 201 217 204 183 197 202 196 191 190 190 189 189 188 184
349 348 334 350 332 309 305 290 279 285 256 260 271 277 283 304 311 310 308 303 310 314 309 302 273 253 269 269 265 247 221 229 242 234 237 234 228 227 230 221 204 207 206 223 254 219 207 203 185 190 202 205 202 205 214 210 196 194 199 203 208 204 199 196 203 215 217 211 202 199 209 208 203 182 196 212 201 179 190 200 194 190 189 190 191 189 186 182
347 325 282 274 299 306 293 269 252 214 259 257 259 284 303 310 311 313 309 304 307 306 298 298 274 244 274 273 274 224 212 229 233 227 238 230 227 226 226 226 213 209 205 211 246 240 210 197 184 187 194 202 203 204 211 216 211 198 193 198 206 211 208 200 201 198 201 210 199 195 209 210 202 191 191 211 202 180 188 200 194 190 189 190 190 189 185 179
343 319 264 239 281 322 302 251 201 211 259 255 252 269 291 304 309 314 315 313 309 279 244 273 256 191 271 283 322 263 229 232 201 205 227 213 213 220 214 208 206 209 210 206 225 257 238 203 184 192 192 190 200 206 208 217 220 211 195 198 207 212 204 200 207 193 191 206 199 197 207 211 212 194 182 202 198 181 190 198 195 192 189 189 188 186 185 178
329 303 250 212 294 331 307 241 179 211 242 257 276 287 300 307 310 316 322 324 309 263 240 268 253 216 256 279 313 299 252 245 229 224 224 199 200 231 218 201 191 199 210 212 228 258 251 224 182 188 188 181 194 208 203 206 214 210 205 206 210 216 205 201 212 199 195 203 196 197 203 209 215 193 177 194 195 188 194 195 194 193 187 188 185 183 183 178
316 296 236 177 321 318 318 187 181 213 237 269 291 296 304 311 313 315 322 334 288 245 254 276 268 249 264 276 287 283 260 258 254 249 223 198 209 253 225 201 177 194 210 222 239 253 254 254 197 180 181 183 190 202 202 202 204 203 206 206 203 209 210 208 215 210 204 203 196 197 202 211 215 189 180 194 197 193 195 194 195 190 184 184 181 179 181 176
306 296 224 52 325 313 310 204 203 233 255 283 295 298 308 316 315 312 318 335 179 237 254 270 281 268 273 284 281 270 268 268 251 234 224 211 219 258 219 186 173 196 210 220 232 235 234 242 204 174 177 188 190 191 201 212 209 197 197 203 199 200 205 205 207 210 211 206 200 204 208 206 206 194 186 190 196 196 194 192 192 186 180 179 179 182 180 175
304 311 317 307 323 342 282 250 237 238 242 296 318 324 321 318 313 315 321 331 63 250 261 259 266 264 266 275 281 283 282 276 257 232 235 211 214 280 212 185 191 207 218 229 224 211 221 235 197 175 176 182 184 189 200 215 217 206 199 201 198 198 205 204 196 198 206 203 197 206 212 192 188 201 186 173 187 199 193 190 191 186 181 177 179 187 185 176
315 331 306 298 320 337 264 276 297 272 283 321 326 326 324 317 312 323 331 334 348 358 283 258 240 262 267 266 283 293 284 282 307 350 233 216 197 88 182 187 203 225 231 239 215 183 174 241 189 170 174 175 179 189 197 210 217 211 204 204 202 201 204 210 206 195 203 205 197 203 205 159 101 198 192 171 181 194 191 191 192 185 181 177 178 187 189 180
310 305 280 289 315 325 278 308 336 322 316 324 323 324 323 318 320 330 335 336 342 54 278 297 258 251 274 273 280 290 290 297 332 40 227 217 175 144 183 188 205 230 224 266 267 140 127 250 191 163 174 175 175 185 189 202 212 210 206 206 207 206 205 216 222 202 212 213 197 201 201 158 118 185 211 182 180 186 183 187 192 187 182 181 181 183 183 177
308 301 307 289 268 270 278 292 310 312 321 325 323 323 322 322 335 342 338 334 343 123 185 298 291 227 275 287 282 283 284 272 168 235 230 203 159 162 192 189 201 224 223 291 317 354 74 272 227 171 177 168 174 188 181 189 202 208 212 208 205 206 205 213 219 203 212 208 194 199 191 140 136 168 192 187 186 185 173 178 190 188 183 184 182 176 170 168
317 323 345 330 276 264 272 263 277 314 328 328 322 322 326 330 340 345 341 339 352 46 181 241 290 239 265 282 283 283 264 203 193 237 216 204 170 177 196 190 200 222 222 316 293 291 296 281 295 297 213 176 182 191 185 189 196 198 207 207 205 207 207 208 213 207 207 204 199 194 142 133 151 161 170 177 180 178 169 176 183 171 166 172 170 166 163 166
321 324 348 342 309 287 298 306 330 338 326 320 319 321 328 331 336 344 344 343 348 346 206 183 196 250 256 260 278 286 261 210 207 214 210 223 194 170 184 189 200 218 248 307 254 260 289 244 227 299 283 254 218 193 186 189 193 196 203 203 202 210 212 209 212 214 211 209 206 189 143 140 156 150 149 152 146 144 153 171 180 172 167 163 161 163 164 170
356 337 350 360 318 291 322 329 331 329 318 315 319 321 327 332 336 343 341 329 335 345 353 179 200 222 231 241 274 277 225 174 177 214 229 238 188 163 174 192 202 208 227 253 241 242 292 264 214 237 258 272 320 220 194 191 190 193 201 202 202 209 214 213 212 210 208 210 207 191 168 154 150 145 147 142 123 119 115 112 140 172 176 174 173 177 180 186
11 342 348 359 320 293 304 314 317 319 321 329 333 329 330 331 333 337 333 326 330 347 359 338 307 299 234 226 248 261 217 164 172 212 235 242 207 175 172 192 205 200 208 236 248 245 267 281 265 257 244 213 217 229 215 204 198 197 199 201 202 203 207 216 216 211 210 218 230 217 196 190 179 153 144 135 115 112 109 113 139 167 176 178 181 185 192 198
14 353 337 334 317 298 301 316 323 318 327 351 350 336 330 327 329 332 330 325 321 333 350 331 319 337 335 212 219 239 248 273 232 211 218 225 220 199 181 189 205 200 202 224 251 251 254 297 301 279 258 228 220 219 220 214 210 208 202 198 201 202 205 213 216 216 217 221 242 251 225 207 203 150 117 114 128 140 143 152 164 172 176 179 182 186 193 200
9 347 329 325 315 304 308 325 332 326 338 355 345 335 328 322 325 326 323 319 308 320 337 325 320 335 334 197 222 254 266 275 266 242 225 225 228 226 211 213 217 201 202 225 246 236 235 273 282 257 235 218 202 206 225 226 224 224 213 203 201 201 203 209 210 212 217 219 228 239 232 212 197 132 113 138 218 201 187 176 164 179 186 183 184 185 190 195
359 348 342 327 304 301 314 325 333 339 347 344 335 331 322 316 320 323 325 321 310 320 330 325 325 338 178 197 314 306 281 262 248 250 249 238 243 253 252 265 268 224 197 216 242 243 250 267 283 280 276 240 192 198 225 225 221 224 219 212 208 203 202 205 206 207 213 221 225 226 230 223 185 144 149 180 206 154 156 149 142 202 200 191 191 190 190 191
Height
1533 1532 1531 1530 1529 1528 1527 1525 1524 1523 1522 1521 1520 1519 1518 1516 1515 1514 1513 1512 1511 1510 1509 1508 1507 1506 1505 1505 1505 1503 1502 1501 1499 1501 1501 1498 1496 1497 1497 1497 1496 1497 1497 1498 1500 1501 1502 1503 1503 1504 1505 1505 1504 1503 1503 1502 1502 1501 1501 1501 1495 1490 1485 1482 1484 1480 1477 1478 1476 1479 1479 1485 1492 1490 1490 1493 1496 1495 1493 1495 1496 1500 1502 1503 1506 1505 1505 1505
1533 1532 1531 1530 1529 1528 1526 1525 1524 1523 1522 1520 1519 1518 1517 1516 1515 1513 1512 1511 1510 1509 1508 1507 1506 1504 1504 1504 1504 1503 1501 1500 1499 1499 1498 1495 1495 1496 1495 1495 1495 1496 1497 1498 1500 1501 1501 1501 1501 1502 1502 1501 1499 1499 1499 1498 1497 1495 1495 1494 1487 1483 1480 1477 1479 1477 1475 1475 1474 1476 1478 1484 1491 1489 1487 1489 1492 1492 1491 1493 1495 1498 1501 1504 1508 1506 1504 1505
1533 1532 1531 1529 1528 1527 1526 1525 1524 1522 1521 1520 1519 1517 1516 1515 1514 1513 1512 1510 1509 1508 1507 1506 1505 1503 1503 1503 1504 1502 1500 1499 1498 1496 1494 1493 1494 1494 1494 1494 1494 1495 1496 1497 1499 1499 1499 1499 1500 1500 1499 1497 1494 1494 1494 1492 1492 1489 1489 1486 1478 1477 1478 1476 1476 1475 1475 1475 1473 1474 1477 1482 1488 1489 1485 1485 1487 1488 1488 1490 1492 1494 1497 1502 1507 1508 1504 1504
1533 1532 1530 1529 1528 1527 1526 1525 1523 1522 1521 1519 1518 1517 1516 1514 1513 1512 1511 1510 1509 1507 1506 1505 1504 1503 1502 1502 1503 1501 1501 1498 1495 1493 1492 1494 1493 1492 1493 1493 1493 1494 1495 1497 1497 1497 1498 1498 1498 1497 1496 1492 1490 1489 1488 1486 1485 1483 1482 1477 1473 1475 1476 1475 1475 1475 1475 1475 1474 1473 1475 1477 1482 1487 1485 1484 1487 1486 1484 1487 1489 1489 1493 1498 1503 1506 1504 1504
1532 1531 1530 1529 1528 1526 1525 1524 1523 1522 1520 1519 1518 1516 1515 1514 1513 1512 1511 1509 1508 1507 1506 1505 1503 1502 1501 1502 1502 1502 1502 1497 1492 1492 1492 1493 1492 1492 1492 1492 1493 1493 1494 1495 1496 1496 1496 1496 1496 1495 1492 1487 1485 1484 1480 1480 1480 1478 1475 1470 1471 1473 1472 1472 1474 1475 1474 1475 1474 1472 1474 1473 1476 1483 1484 1483 1485 1485 1482 1483 1484 1484 1488 1494 1500 1503 1502 1503
1532 1531 1530 1528 1527 1526 1525 1523 1522 1521 1519 1518 1517 1516 1514 1513 1512 1511 1510 1508 1507 1506 1505 1504 1503 1502 1501 1501 1500 1502 1503 1495 1491 1492 1492 1492 1491 1492 1492 1491 1492 1492 1493 1494 1495 1495 1494 1495 1494 1492 1489 1484 1480 1477 1475 1476 1477 1475 1471 1468 1469 1470 1469 1470 1471 1472 1473 1474 1472 1469 1472 1474 1474 1478 1481 1481 1481 1482 1482 1481 1483 1485 1487 1494 1500 1501 1501 1502
1532 1530 1529 1528 1526 1525 1524 1522 1521 1520 1519 1518 1516 1515 1513 1512 1511 1510 1509 1507 1506 1505 1504 1503 1502 1501 1501 1500 1500 1502 1501 1496 1492 1490 1490 1491 1491 1491 1491 1491 1492 1492 1493 1493 1493 1493 1492 1492 1490 1488 1486 1481 1477 1474 1472 1473 1474 1472 1468 1465 1466 1468 1468 1469 1469 1469 1470 1471 1470 1466 1470 1476 1475 1475 1477 1477 1477 1481 1483 1482 1485 1489 1490 1494 1499 1500 1500 1501
1531 1530 1528 1527 1525 1524 1523 1522 1520 1519 1518 1516 1515 1514 1512 1511 1510 1509 1508 1506 1505 1504 1503 1502 1501 1501 1500 1500 1501 1501 1498 1495 1492 1489 1490 1491 1491 1491 1490 1490 1491 1492 1492 1492 1492 1491 1491 1489 1487 1486 1482 1478 1475 1472 1471 1472 1470 1467 1464 1463 1464 1464 1465 1468 1469 1468 1468 1468 1469 1466 1466 1473 1475 1474 1473 1474 1476 1480 1482 1482 1485 1490 1492 1493 1497 1498 1499 1500
1530 1529 1528 1526 1525 1523 1522 1521 1519 1518 1517 1516 1514 1513 1511 1510 1509 1508 1506 1505 1504 1503 1502 1501 1500 1500 1500 1500 1503 1501 1494 1492 1491 1489 1491 1490 1490 1490 1489 1490 1491 1491 1491 1491 1491 1490 1489 1486 1485 1484 1480 1476 1474 1471 1470 1469 1465 1461 1462 1462 1462 1462 1463 1464 1466 1467 1466 1466 1467 1467 1468 1471 1474 1474 1471 1472 1475 1477 1479 1480 1484 1489 1492 1493 1495 1497 1498 1499
1530 1528 1527 1525 1524 1522 1521 1520 1518 1517 1516 1514 1513 1511 1510 1508 1508 1507 1505 1504 1503 1502 1501 1500 1500 1499 1500 1502 1502 1498 1492 1491 1491 1490 1491 1490 1489 1488 1489 1490 1489 1489 1489 1489 1489 1488 1487 1485 1484 1484 1481 1476 1473 1469 1467 1465 1461 1459 1462 1462 1460 1460 1461 1460 1462 1465 1465 1464 1465 1468 1470 1471 1472 1473 1471 1471 1474 1477 1477 1478 1483 1489 1492 1494 1494 1495 1497 1498
1529 1528 1526 1524 1523 1521 1519 1518 1516 1515 1514 1512 1511 1510 1508 1507 1506 1505 1504 1503 1502 1501 1500 1499 1499 1498 1499 1501 1500 1495 1490 1491 1490 1489 1489 1488 1487 1487 1488 1488 1487 1488 1488 1487 1487 1487 1487 1485 1484 1483 1479 1476 1472 1468 1465 1463 1461 1460 1460 1459 1457 1458 1460 1458 1457 1461 1460 1460 1462 1465 1470 1471 1469 1468 1466 1469 1473 1477 1477 1478 1483 1488 1491 1493 1493 1494 1495 1496
1528 1527 1525 1523 1521 1519 1518 1516 1515 1513 1512 1511 1509 1507 1507 1506 1504 1503 1502 1501 1500 1500 1499 1498 1498 1498 1499 1499 1495 1491 1489 1489 1488 1487 1487 1486 1486 1486 1486 1486 1486 1486 1486 1486 1485 1485 1485 1485 1485 1482 1477 1474 1472 1469 1466 1463 1461 1461 1459 1458 1457 1458 1460 1456 1454 1458 1459 1458 1461 1466 1472 1471 1463 1460 1462 1467 1471 1474 1477 1480 1483 1486 1490 1490 1491 1493 1493 1495
1527 1526 1524 1522 1520 1518 1516 1514 1513 1511 1510 1509 1507 1506 1505 1504 1503 1502 1500 1499 1499 1498 1497 1497 1497 1498 1499 1494 1489 1488 1487 1487 1486 1485 1484 1484 1485 1484 1484 1484 1484 1484 1484 1484 1484 1484 1484 1484 1484 1481 1478 1474 1470 1468 1466 1464 1462 1460 1458 1458 1459 1459 1457 1453 1451 1457 1460 1457 1459 1467 1473 1466 1456 1455 1460 1465 1469 1472 1476 1479 1481 1483 1487 1488 1489 1491 1492 1493
1526 1525 1522 1520 1518 1516 1515 1513 1512 1510 1509 1507 1505 1504 1503 1502 1501 1500 1499 1498 1497 1496 1496 1496 1496 1497 1497 1489 1485 1486 1485 1484 1483 1482 1482 1483 1484 1483 1483 1483 1482 1483 1483 1483 1483 1483 1483 1483 1483 1481 1479 1475 1471 1468 1464 1463 1462 1459 1460 1457 1457 1458 1453 1446 1448 1455 1457 1456 1457 1464 1467 1458 1451 1454 1458 1461 1466 1470 1473 1476 1478 1479 1483 1485 1486 1489 1491 1491
1526 1523 1521 1519 1517 1515 1513 1512 1511 1509 1507 1505 1504 1502 1501 1500 1499 1498 1498 1496 1495 1495 1494 1494 1495 1496 1494 1487 1483 1483 1482 1481 1480 1480 1481 1482 1483 1482 1482 1481 1481 1481 1481 1481 1481 1482 1482 1482 1482 1479 1477 1476 1475 1471 1463 1461 1459 1456 1460 1457 1453 1456 1449 1440 1444 1450 1453 1452 1454 1461 1459 1450 1449 1451 1453 1457 1462 1466 1468 1472 1475 1475 1478 1482 1482 1486 1489 1489
1525 1523 1521 1518 1516 1514 1513 1511 1509 1508 1506 1504 1502 1500 1499 1498 1497 1497 1496 1494 1494 1493 1493 1494 1495 1496 1493 1485 1482 1481 1481 1480 1479 1480 1481 1481 1481 1481 1481 1480 1480 1479 1479 1480 1480 1480 1481 1480 1479 1477 1476 1474 1473 1470 1465 1463 1458 1452 1455 1454 1451 1451 1447 1440 1440 1443 1448 1450 1451 1453 1450 1447 1448 1448 1448 1452 1457 1462 1465 1469 1471 1472 1474 1477 1480 1482 1485 1487
1524 1522 1519 1517 1516 1513 1512 1510 1508 1506 1504 1502 1501 1499 1498 1497 1496 1496 1494 1493 1493 1493 1494 1494 1495 1496 1490 1483 1481 1480 1480 1480 1479 1479 1480 1480 1480 1480 1480 1479 1478 1477 1477 1477 1478 1478 1478 1477 1476 1474 1472 1470 1467 1467 1468 1465 1458 1450 1449 1449 1444 1442 1443 1440 1436 1436 1443 1447 1447 1446 1443 1445 1446 1444 1445 1447 1451 1457 1461 1466 1467 1468 1470 1474 1478 1480 1482 1484
1523 1521 1518 1517 1514 1512 1511 1509 1507 1505 1503 1501 1499 1498 1497 1496 1495 1494 1493 1493 1493 1495 1494 1493 1495 1492 1483 1480 1481 1479 1478 1479 1478 1479 1479 1479 1479 1478 1479 1478 1477 1476 1475 1474 1474 1474 1475 1473 1471 1468 1466 1465 1463 1462 1463 1458 1450 1445 1443 1444 1440 1435 1436 1436 1432 1429 1436 1444 1443 1441 1441 1443 1444 1441 1441 1441 1444 1452 1458 1463 1464 1464 1466 1470 1476 1478 1480 1482
1522 1520 1518 1515 1513 1512 1510 1508 1506 1504 1502 1500 1498 1497 1495 1495 1494 1492 1493 1494 1494 1492 1488 1487 1490 1485 1476 1477 1480 1478 1478 1478 1477 1477 1477 1477 1477 1477 1477 1476 1476 1475 1472 1470 1468 1469 1470 1468 1467 1464 1459 1459 1456 1454 1453 1448 1442 1437 1435 1437 1436 1434 1431 1430 1429 1424 1430 1440 1440 1437 1437 1440 1443 1441 1439 1439 1443 1452 1458 1461 1461 1461 1463 1466 1472 1476 1478 1479
1521 1519 1516 1514 1512 1510 1508 1507 1505 1503 1501 1499 1498 1497 1495 1494 1493 1490 1492 1493 1491 1488 1484 1483 1484 1479 1474 1475 1477 1476 1476 1476 1475 1474 1474 1475 1476 1476 1475 1475 1474 1472 1469 1464 1461 1463 1464 1463 1460 1457 1453 1450 1450 1448 1446 1443 1441 1435 1431 1432 1431 1432 1430 1424 1424 1421 1423 1434 1436 1433 1434 1436 1440 1440 1438 1440 1446 1453 1456 1456 1456 1457 1459 1462 1467 1472 1474 1476
1520 1518 1515 1513 1511 1509 1507 1505 1503 1502 1501 1499 1500 1500 1498 1498 1497 1494 1493 1489 1486 1485 1482 1480 1479 1476 1474 1474 1475 1475 1475 1474 1472 1471 1472 1472 1473 1473 1471 1471 1470 1466 1463 1460 1457 1457 1460 1459 1453 1449 1447 1444 1445 1445 1444 1444 1442 1436 1432 1429 1426 1428 1426 1419 1419 1418 1418 1428 1433 1431 1433 1434 1436 1436 1434 1434 1442 1449 1451 1452 1453 1453 1456 1458 1462 1467 1471 1473
1519 1517 1514 1512 1510 1508 1506 1504 1503 1502 1501 1500 1502 1502 1501 1501 1500 1499 1496 1488 1482 1480 1479 1477 1476 1474 1473 1473 1473 1474 1474 1472 1469 1467 1468 1470 1470 1470 1466 1465 1465 1460 1456 1456 1456 1455 1456 1455 1448 1444 1443 1442 1442 1442 1443 1444 1441 1439 1432 1424 1421 1421 1421 1418 1416 1414 1414 1424 1431 1429 1431 1433 1430 1431 1430 1428 1434 1443 1447 1448 1450 1451 1452 1454 1458 1463 1467 1471
1518 1515 1513 1511 1508 1507 1505 1504 1502 1501 1501 1502 1503 1503 1502 1501 1500 1498 1498 1491 1480 1474 1473 1472 1472 1471 1470 1471 1470 1471 1471 1467 1465 1463 1464 1467 1467 1467 1465 1461 1459 1456 1453 1451 1451 1451 1450 1448 1446 1442 1440 1440 1441 1439 1441 1442 1440 1439 1430 1423 1425 1419 1417 1421 1416 1411 1411 1420 1428 1426 1428 1431 1427 1427 1426 1423 1430 1439 1444 1447 1448 1448 1449 1451 1455 1459 1463 1468
1517 1514 1512 1510 1507 1506 1504 1503 1502 1502 1503 1503 1503 1502 1501 1500 1499 1497 1496 1490 1478 1470 1469 1468 1468 1468 1467 1467 1468 1468 1467 1464 1462 1460 1461 1464 1464 1465 1463 1459 1456 1453 1450 1446 1445 1445 1442 1440 1440 1440 1438 1437 1439 1438 1438 1439 1438 1436 1428 1425 1428 1418 1411 1415 1412 1410 1415 1421 1426 1424 1428 1429 1423 1424 1424 1420 1426 1435 1440 1443 1444 1445 1446 1449 1453 1457 1461 1464
1516 1513 1511 1509 1507 1505 1504 1503 1503 1504 1504 1504 1503 1501 1500 1499 1499 1497 1495 1489 1474 1463 1465 1466 1466 1466 1465 1466 1466 1466 1464 1461 1460 1459 1460 1462 1462 1461 1459 1458 1456 1450 1447 1444 1443 1441 1438 1436 1435 1437 1438 1435 1437 1436 1433 1435 1436 1436 1428 1422 1423 1415 1408 1408 1406 1412 1424 1429 1424 1422 1430 1429 1417 1418 1420 1418 1423 1430 1434 1437 1439 1441 1443 1446 1450 1455 1459 1462
1515 1512 1510 1508 1506 1505 1505 1504 1504 1504 1503 1503 1503 1501 1500 1499 1498 1497 1495 1487 1470 1458 1460 1463 1462 1462 1463 1464 1465 1465 1463 1458 1457 1458 1459 1459 1460 1459 1456 1454 1453 1448 1444 1442 1441 1438 1435 1434 1433 1435 1437 1435 1435 1433 1429 1430 1434 1433 1425 1420 1420 1413 1407 1408 1406 1411 1425 1429 1420 1417 1427 1426 1415 1413 1414 1415 1420 1426 1430 1432 1433 1436 1439 1442 1446 1451 1455 1459
1514 1511 1509 1507 1506 1504 1504 1504 1504 1504 1503 1504 1502 1501 1500 1499 1498 1497 1494 1483 1464 1454 1457 1459 1459 1459 1460 1461 1463 1463 1460 1456 1455 1455 1456 1458 1458 1458 1455 1450 1448 1446 1443 1442 1441 1436 1433 1433 1432 1433 1435 1435 1433 1430 1426 1427 1431 1429 1420 1420 1424 1415 1409 1410 1408 1409 1415 1420 1416 1414 1420 1422 1414 1409 1409 1412 1418 1424 1427 1427 1428 1431 1434 1438 1443 1448 1452 1456
1513 1511 1508 1507 1505 1504 1503 1503 1503 1503 1504 1503 1502 1501 1499 1498 1498 1496 1494 1482 1459 1450 1453 1455 1458 1459 1459 1460 1461 1459 1456 1454 1454 1452 1454 1457 1456 1456 1455 1450 1447 1443 1441 1443 1441 1434 1431 1432 1430 1431 1434 1435 1431 1425 1423 1424 1427 1424 1417 1420 1425 1421 1415 1411 1408 1408 1409 1416 1420 1413 1415 1423 1417 1406 1404 1410 1415 1420 1422 1422 1424 1426 1429 1435 1440 1445 1449 1453
1512 1510 1508 1506 1505 1504 1503 1502 1502 1503 1504 1502 1502 1501 1498 1499 1498 1494 1493 1480 1455 1447 1451 1453 1456 1458 1458 1459 1458 1457 1455 1454 1452 1450 1453 1455 1454 1453 1451 1449 1448 1443 1441 1443 1440 1433 1430 1430 1428 1427 1430 1432 1429 1423 1420 1422 1425 1422 1417 1419 1422 1423 1421 1413 1409 1408 1408 1419 1423 1409 1408 1422 1420 1404 1399 1406 1410 1412 1415 1417 1419 1421 1425 1431 1436 1440 1445 1449
1511 1509 1507 1506 1505 1504 1503 1502 1502 1502 1502 1502 1501 1500 1498 1499 1496 1490 1486 1473 1452 1446 1449 1452 1454 1454 1454 1456 1455 1455 1455 1454 1452 1450 1451 1451 1451 1452 1449 1447 1447 1444 1442 1441 1440 1435 1431 1430 1428 1425 1427 1428 1425 1420 1418 1422 1425 1423 1421 1419 1419 1422 1422 1416 1409 1403 1411 1425 1420 1402 1399 1413 1420 1405 1394 1397 1401 1404 1411 1414 1415 1417 1420 1426 1432 1437 1441 1445
1510 1508 1506 1505 1505 1505 1505 1504 1503 1502 1502 1502 1500 1500 1499 1496 1492 1485 1473 1460 1451 1448 1448 1449 1450 1451 1453 1455 1454 1453 1452 1452 1450 1449 1449 1448 1448 1448 1447 1446 1445 1445 1444 1441 1440 1437 1434 1434 1428 1424 1427 1427 1424 1420 1420 1422 1422 1422 1421 1416 1418 1424 1424 1426 1419 1410 1420 1429 1414 1396 1393 1405 1416 1403 1387 1388 1393 1399 1405 1408 1411 1414 1416 1422 1428 1433 1437 1442
1509 1507 1505 1505 1504 1503 1505 1505 1503 1502 1501 1501 1500 1500 1498 1492 1487 1479 1464 1456 1456 1453 1450 1451 1450 1452 1456 1456 1454 1451 1450 1449 1447 1446 1445 1446 1445 1442 1441 1441 1440 1444 1445 1440 1438 1435 1434 1433 1428 1426 1427 1426 1425 1423 1423 1420 1415 1419 1418 1413 1421 1429 1431 1437 1432 1422 1425 1420 1403 1393 1392 1400 1405 1394 1382 1383 1387 1394 1398 1400 1405 1409 1412 1417 1423 1429 1433 1438
1507 1506 1504 1504 1503 1503 1503 1503 1502 1501 1501 1501 1500 1499 1497 1493 1482 1468 1459 1460 1459 1454 1453 1456 1457 1458 1461 1460 1454 1449 1446 1444 1444 1445 1443 1442 1443 1440 1437 1435 1434 1438 1439 1436 1436 1436 1436 1432 1426 1426 1425 1424 1424 1422 1421 1417 1412 1415 1413 1411 1420 1425 1432 1440 1432 1426 1425 1412 1396 1388 1389 1399 1399 1388 1381 1379 1380 1389 1395 1396 1401 1405 1408 1413 1418 1424 1429 1433
1506 1505 1504 1503 1503 1503 1502 1501 1501 1501 1501 1501 1500 1498 1497 1491 1474 1461 1461 1462 1459 1455 1455 1458 1460 1462 1461 1458 1452 1447 1444 1441 1440 1442 1441 1441 1442 1440 1438 1434 1431 1433 1435 1437 1439 1436 1435 1431 1425 1423 1420 1419 1421 1418 1417 1413 1410 1411 1404 1405 1412 1410 1418 1427 1422 1420 1421 1409 1395 1387 1391 1401 1397 1384 1378 1375 1375 1384 1392 1394 1397 1402 1406 1411 1415 1421 1425 1430
1505 1504 1503 1503 1503 1502 1501 1501 1501 1501 1501 1500 1500 1498 1493 1482 1469 1465 1466 1463 1460 1459 1459 1460 1462 1462 1457 1451 1448 1445 1444 1442 1438 1437 1438 1439 1439 1439 1437 1430 1427 1431 1436 1443 1442 1432 1428 1423 1416 1418 1416 1414 1416 1415 1413 1410 1410 1408 1399 1402 1405 1397 1400 1409 1408 1405 1406 1407 1400 1393 1394 1393 1385 1378 1374 1374 1376 1381 1389 1392 1393 1399 1404 1409 1413 1417 1422 1427
1505 1505 1504 1504 1504 1503 1501 1501 1500 1501 1501 1500 1500 1493 1483 1474 1469 1468 1466 1463 1464 1466 1464 1460 1458 1458 1454 1447 1443 1441 1442 1441 1437 1435 1435 1435 1436 1434 1429 1423 1422 1428 1434 1441 1440 1428 1423 1417 1408 1412 1415 1412 1413 1413 1410 1408 1408 1404 1400 1402 1398 1387 1390 1402 1407 1401 1402 1411 1405 1396 1394 1384 1379 1382 1377 1375 1378 1382 1388 1390 1390 1396 1401 1406 1410 1413 1419 1424
1505 1505 1505 1505 1504 1503 1501 1500 1500 1501 1500 1501 1500 1489 1475 1470 1468 1466 1465 1466 1467 1468 1468 1462 1454 1453 1452 1445 1441 1442 1443 1439 1434 1434 1434 1435 1434 1429 1423 1421 1422 1424 1428 1438 1439 1422 1414 1413 1405 1406 1413 1411 1410 1412 1409 1405 1402 1400 1400 1399 1392 1387 1387 1394 1406 1410 1412 1416 1403 1392 1394 1388 1386 1390 1382 1377 1379 1382 1388 1390 1389 1394 1397 1402 1407 1411 1416 1421
1504 1505 1505 1504 1503 1501 1500 1500 1500 1501 1500 1500 1498 1486 1475 1471 1467 1464 1465 1467 1467 1467 1467 1463 1456 1453 1451 1445 1441 1440 1439 1435 1430 1431 1434 1435 1431 1423 1420 1421 1422 1423 1424 1434 1439 1423 1412 1414 1409 1404 1408 1410 1409 1411 1412 1407 1399 1396 1395 1392 1390 1395 1397 1395 1401 1409 1414 1415 1403 1391 1391 1389 1387 1386 1382 1381 1380 1383 1388 1389 1389 1392 1394 1399 1404 1408 1413 1418
1504 1504 1503 1503 1502 1501 1499 1499 1499 1500 1500 1498 1491 1480 1473 1469 1465 1464 1465 1465 1466 1466 1463 1459 1456 1455 1452 1447 1443 1438 1433 1430 1426 1424 1426 1429 1427 1421 1418 1417 1419 1423 1425 1429 1433 1424 1413 1413 1410 1402 1402 1407 1408 1409 1412 1410 1401 1395 1395 1390 1386 1391 1395 1394 1394 1396 1403 1407 1402 1396 1396 1390 1379 1375 1380 1383 1381 1383 1386 1386 1388 1389 1391 1396 1400 1405 1411 1416
1505 1503 1501 1502 1502 1501 1499 1499 1499 1499 1498 1492 1484 1477 1471 1467 1464 1463 1463 1463 1464 1464 1461 1457 1456 1455 1452 1447 1444 1440 1434 1426 1420 1419 1420 1421 1423 1421 1416 1416 1419 1423 1425 1427 1427 1420 1414 1416 1411 1402 1401 1406 1409 1407 1409 1409 1402 1397 1397 1393 1389 1388 1388 1391 1390 1384 1387 1394 1396 1400 1404 1391 1370 1367 1376 1380 1378 1380 1382 1383 1385 1385 1389 1394 1399 1404 1409 1414
1505 1501 1500 1501 1502 1500 1499 1499 1497 1496 1492 1485 1479 1475 1471 1467 1464 1461 1460 1461 1461 1461 1459 1458 1457 1456 1453 1448 1443 1439 1434 1424 1416 1417 1419 1419 1421 1420 1414 1415 1420 1423 1424 1423 1420 1416 1418 1419 1411 1402 1403 1406 1406 1403 1403 1403 1397 1393 1394 1390 1389 1389 1389 1397 1399 1385 1378 1383 1388 1395 1399 1386 1366 1362 1369 1373 1376 1377 1377 1380 1382 1383 1388 1394 1399 1404 1408 1412
1503 1499 1499 1501 1500 1499 1500 1497 1491 1488 1487 1481 1476 1474 1471 1468 1464 1460 1457 1456 1458 1459 1458 1458 1458 1456 1452 1448 1443 1437 1433 1425 1416 1415 1419 1417 1417 1417 1414 1416 1420 1421 1420 1417 1413 1412 1415 1415 1408 1401 1400 1402 1402 1400 1400 1400 1393 1388 1388 1384 1382 1384 1386 1394 1400 1389 1378 1377 1376 1381 1388 1380 1364 1359 1362 1369 1374 1374 1374 1378 1380 1383 1388 1394 1400 1406 1408 1411
1503 1500 1500 1500 1499 1500 1499 1492 1482 1481 1482 1478 1474 1472 1469 1467 1462 1457 1454 1453 1456 1459 1459 1458 1457 1456 1451 1447 1444 1438 1433 1428 1419 1416 1420 1417 1413 1415 1415 1417 1418 1417 1415 1414 1409 1408 1411 1410 1405 1402 1399 1397 1398 1397 1397 1398 1394 1391 1388 1382 1380 1381 1380 1382 1383 1380 1380 1378 1372 1379 1388 1381 1368 1362 1363 1367 1372 1374 1374 1377 1379 1382 1387 1392 1399 1406 1409 1411
1504 1501 1499 1498 1498 1500 1497 1490 1485 1484 1482 1478 1475 1471 1467 1463 1459 1455 1453 1452 1454 1458 1460 1458 1456 1457 1452 1447 1445 1440 1435 1432 1425 1419 1420 1416 1413 1415 1415 1416 1417 1415 1414 1414 1408 1408 1414 1408 1400 1404 1406 1403 1404 1404 1402 1399 1396 1394 1391 1383 1379 1377 1376 1378 1377 1379 1386 1381 1374 1384 1389 1381 1374 1371 1368 1369 1372 1374 1374 1376 1379 1381 1386 1391 1397 1403 1406 1409
1502 1499 1497 1497 1497 1499 1496 1490 1488 1487 1482 1478 1476 1471 1465 1460 1456 1455 1453 1451 1452 1456 1459 1457 1455 1456 1453 1447 1445 1439 1432 1433 1430 1422 1419 1415 1412 1414 1415 1414 1416 1414 1413 1414 1410 1411 1417 1410 1400 1405 1411 1412 1414 1412 1406 1402 1400 1398 1392 1384 1379 1377 1380 1384 1384 1390 1394 1383 1377 1385 1384 1377 1375 1376 1374 1374 1375 1375 1374 1376 1379 1381 1384 1388 1393 1399 1403 1408
1503 1499 1498 1496 1495 1495 1492 1487 1487 1485 1482 1480 1477 1470 1463 1458 1453 1453 1453 1451 1451 1453 1455 1456 1455 1455 1454 1449 1446 1438 1429 1427 1428 1424 1419 1415 1412 1413 1414 1414 1415 1413 1412 1415 1414 1412 1415 1412 1407 1407 1407 1405 1406 1401 1396 1397 1399 1399 1394 1387 1384 1382 1381 1384 1388 1392 1390 1383 1380 1379 1377 1379 1379 1376 1377 1378 1377 1377 1377 1378 1381 1383 1386 1389 1391 1397 1403 1408
1504 1501 1501 1500 1496 1491 1486 1485 1485 1485 1482 1481 1476 1467 1462 1459 1454 1452 1452 1450 1450 1449 1450 1454 1455 1454 1452 1450 1446 1439 1429 1425 1426 1423 1419 1415 1411 1411 1413 1413 1413 1414 1414 1415 1415 1413 1413 1412 1411 1411 1406 1396 1390 1387 1387 1390 1394 1395 1393 1388 1387 1385 1381 1383 1389 1387 1383 1387 1388 1377 1374 1383 1381 1375 1378 1379 1378 1381 1381 1380 1382 1385 1389 1392 1395 1399 1404 1410
1506 1504 1505 1506 1502 1493 1488 1487 1486 1484 1480 1476 1472 1466 1463 1461 1458 1455 1452 1449 1447 1445 1445 1449 1452 1452 1450 1449 1446 1439 1430 1427 1429 1426 1421 1416 1411 1410 1413 1413 1412 1414 1415 1415 1412 1410 1412 1411 1408 1409 1407 1397 1390 1387 1382 1383 1387 1389 1389 1388 1386 1386 1384 1384 1386 1383 1382 1389 1389 1377 1376 1383 1380 1377 1380 1380 1381 1383 1384 1384 1386 1387 1390 1394 1397 1401 1405 1411
1510 1508 1506 1507 1504 1497 1492 1490 1486 1482 1476 1472 1470 1468 1466 1464 1461 1458 1454 1449 1445 1443 1444 1446 1445 1445 1446 1445 1444 1438 1429 1429 1432 1429 1424 1420 1415 1411 1412 1413 1412 1412 1414 1414 1410 1408 1411 1411 1406 1404 1402 1397 1394 1391 1384 1381 1383 1383 1384 1385 1385 1385 1387 1386 1385 1383 1384 1386 1382 1376 1378 1381 1378 1377 1380 1381 1382 1384 1386 1388 1389 1390 1391 1393 1397 1402 1405 1410
1514 1513 1510 1508 1504 1498 1493 1487 1482 1477 1472 1471 1472 1471 1469 1466 1462 1458 1455 1451 1447 1443 1443 1444 1440 1438 1441 1440 1439 1437 1429 1427 1428 1427 1425 1424 1419 1413 1412 1412 1411 1410 1412 1412 1410 1409 1412 1410 1404 1401 1403 1401 1395 1391 1388 1384 1383 1382 1381 1380 1382 1385 1388 1390 1389 1388 1389 1389 1385 1383 1383 1380 1375 1375 1379 1384 1385 1385 1387 1389 1389 1390 1391 1392 1396 1401 1405 1408
1517 1516 1513 1512 1505 1497 1491 1484 1478 1475 1471 1472 1475 1472 1469 1466 1462 1459 1454 1451 1450 1445 1441 1440 1436 1436 1440 1439 1435 1432 1428 1427 1427 1425 1424 1423 1419 1414 1411 1410 1408 1410 1412 1412 1411 1411 1412 1410 1404 1400 1403 1401 1393 1391 1393 1389 1387 1388 1384 1380 1381 1385 1389 1391 1391 1391 1393 1393 1391 1389 1386 1379 1374 1375 1382 1386 1386 1385 1386 1387 1388 1389 1389 1391 1394 1397 1402 1405
1518 1515 1514 1514 1506 1496 1490 1484 1477 1476 1476 1477 1477 1473 1471 1467 1462 1460 1455 1449 1447 1445 1441 1439 1435 1435 1439 1437 1432 1428 1426 1426 1426 1424 1423 1421 1418 1415 1412 1410 1408 1408 1411 1411 1412 1410 1407 1407 1408 1408 1407 1402 1394 1391 1391 1392 1397 1398 1388 1380 1379 1381 1384 1387 1387 1389 1391 1391 1391 1391 1385 1379 1377 1379 1384 1385 1384 1385 1386 1386 1387 1388 1389 1390 1393 1394 1398 1401